Location: Unspecified
(44.0704°N, 88.6889°W)
Time: 19:23:44
(UTC+02:00)

Transit 2A - Pass Details

Date: 23 June 2019
Orbit: 600 x 958 km, 66.7° (Epoch: 19 October)

Event Time Altitude Azimuth Distance (km) Brightness Sun altitude
Rises 17:18:30 0° 323° (NW) 3,411 9.0 51.7°
Reaches altitude 10° 17:21:11 10° 317° (NW) 2,414 8.4 52.1°
Maximum altitude 17:26:21 43° 248° (WSW) 1,060 7.0 53.0°
Drops below altitude 10° 17:31:02 10° 177° (S) 2,172 8.7 53.8°
Sets 17:33:20 0° 170° (S) 3,033 9.4 54.1°
